Wind_Speed
7 7 7 7 7 7 8 8 8 8 8 8 7 8 7 7 7 7 7 6 6 6 6 6 6 6 6 6 6 6 6 6 5 5 5 5 5 4 4 4 4 4 4
7 8 8 8 8 8 8 8 8 9 9 9 9 9 9 8 7 7 8 8 7 7 7 7 7 7 6 6 6 6 6 6 6 5 6 6 6 6 5 5 5 5 5
7 8 8 8 8 9 9 9 9 10 10 10 10 10 10 9 9 9 9 9 9 9 9 9 8 8 8 7 7 6 6 7 6 6 7 7 7 7 7 7 6 6 6
7 7 8 8 8 9 9 10 10 10 11 11 11 11 11 11 10 10 10 10 10 10 10 10 10 9 9 9 8 8 7 7 7 7 8 8 8 7 8 8 8 8 7
5 6 7 7 8 9 9 10 10 11 11 11 12 12 11 11 11 11 11 11 11 12 11 11 10 10 9 10 9 9 9 8 8 9 9 9 9 9 9 9 9 9 9
4 5 5 6 7 8 9 10 10 11 11 11 11 12 12 11 11 11 11 11 11 12 13 12 11 11 10 10 10 10 10 10 10 9 11 10 10 10 10 10 10 10 10
4 4 5 5 6 7 8 9 10 10 10 10 11 11 12 12 12 12 12 12 12 12 12 12 12 12 11 11 11 11 10 11 11 10 11 11 11 11 11 11 11 11 10
4 4 4 5 6 6 7 8 8 9 9 10 10 11 12 12 12 12 11 12 12 11 11 12 12 12 12 12 12 11 11 11 12 11 11 11 12 11 11 11 11 11 11
4 4 4 5 6 6 7 8 8 9 9 10 10 11 11 12 12 12 11 11 11 11 11 12 12 11 12 12 12 12 12 12 12 12 12 12 12 12 12 12 11 11 12
3 3 4 5 5 6 7 7 8 8 9 10 11 11 11 11 11 12 12 11 11 11 11 11 11 11 11 11 12 12 12 12 12 13 13 13 13 13 13 12 12 12 13
3 3 4 4 5 5 6 6 7 7 8 10 10 11 11 11 12 12 11 12 12 11 11 11 11 11 11 10 11 12 12 12 12 12 12 13 13 13 13 13 13 13 13
3 3 3 4 5 5 5 6 6 6 7 8 9 10 11 11 12 12 12 12 11 11 11 11 11 11 11 11 11 12 13 13 12 12 12 11 12 13 13 13 12 13 13
3 3 4 4 4 4 5 5 5 5 6 6 7 8 9 10 10 11 12 12 12 12 12 12 12 11 12 12 13 12 12 12 12 12 12 12 12 12 13 13 13 13 13
4 4 4 3 3 4 4 4 5 5 5 6 6 7 8 9 10 10 11 12 12 12 12 11 11 12 12 12 13 13 13 13 12 13 13 13 12 13 13 14 14 14 14
4 4 4 3 4 4 4 4 5 5 6 6 6 7 7 8 9 10 11 12 12 12 12 12 12 12 13 13 13 13 14 13 13 13 13 13 12 13 14 14 14 14 14
4 4 4 4 4 4 5 5 5 6 6 6 6 7 7 8 9 10 10 11 11 11 11 12 12 12 12 12 12 13 13 14 14 14 14 14 14 14 14 14 14 14 14
4 4 4 4 5 5 5 5 6 6 6 7 7 7 8 8 8 8 8 10 11 11 11 11 11 12 12 12 13 13 14 14 14 15 15 15 15 15 15 15 15 15 15
5 4 5 5 5 5 5 5 6 6 7 7 7 7 7 8 8 8 8 9 10 10 11 11 12 12 12 13 13 13 13 14 15 15 16 16 16 15 16 16 15 15 15
5 5 5 5 5 5 5 5 6 6 6 6 6 7 7 7 8 9 9 9 9 10 10 11 12 12 13 13 12 13 13 14 15 15 15 15 15 15 16 16 16 16 16
6 6 6 5 5 5 5 6 6 5 5 5 6 6 6 7 7 8 9 9 9 9 10 11 11 12 12 13 13 13 13 14 14 15 15 16 16 16 16 16 16 16 17
6 6 6 6 6 6 6 5 5 5 6 6 6 6 6 7 7 8 9 9 9 10 10 11 12 11 12 12 13 13 13 13 14 14 15 16 16 17 17 17 17 17 16
7 7 6 6 6 6 6 6 6 6 6 6 6 7 7 7 8 8 9 10 10 10 10 11 11 12 12 12 12 13 13 13 14 15 15 16 17 17 17 18 18 17 17
7 8 7 7 7 7 7 7 7 7 7 7 7 8 8 9 9 9 10 10 10 10 11 11 12 12 12 13 13 13 14 14 15 15 16 17 17 18 18 18 17 17 17
7 8 8 7 7 7 7 7 7 7 7 8 8 9 9 10 10 11 11 12 11 12 12 12 12 13 13 13 14 14 14 15 15 16 16 17 18 18 18 17 18 18 17
8 8 8 8 8 8 8 8 8 8 8 8 9 9 10 10 10 11 12 12 12 13 13 13 13 13 14 14 15 15 16 16 16 17 17 17 17 17 17 17 17 18 17
9 9 9 9 9 9 9 9 9 9 9 10 10 10 11 11 11 12 12 12 13 13 14 14 14 15 15 15 16 16 17 17 17 18 18 17 17 18 18 17 18 18 18
Wind_Direction
237 234 231 223 222 224 224 224 225 225 224 222 218 217 214 212 211 205 199 196 196 192 191 189 186 178 179 177 176 176 176 180 186 190 189 191 195 199 200 199 189 190 196
238 239 237 232 230 230 231 230 230 230 229 226 224 219 216 215 217 217 209 204 201 203 204 203 202 198 194 190 189 188 189 196 202 209 206 208 211 215 214 215 214 214 219
243 244 242 236 236 236 235 233 234 233 231 230 228 225 220 219 220 218 214 210 207 209 211 211 212 211 207 205 204 207 210 211 215 219 218 219 220 222 223 227 229 231 229
245 246 244 241 241 241 239 235 234 233 234 233 229 226 222 221 222 221 217 218 215 215 215 214 215 216 215 214 216 219 222 223 224 226 225 224 224 227 227 233 239 242 239
246 250 249 247 248 248 241 238 236 236 235 233 228 226 224 222 222 223 221 223 219 217 217 218 215 218 221 221 225 228 229 231 233 232 229 227 228 234 235 239 244 246 246
255 256 254 251 253 251 246 241 238 238 238 235 229 225 224 223 222 221 222 223 225 223 224 226 223 227 228 228 231 231 233 234 233 235 232 230 233 238 238 241 245 248 249
264 261 258 257 259 255 248 244 240 238 234 231 226 222 223 224 224 222 224 226 227 226 226 226 227 232 233 234 236 236 234 232 233 238 236 235 237 240 241 243 243 246 251
266 261 262 258 257 253 245 242 240 241 235 228 225 222 224 228 226 226 225 225 227 228 229 228 228 231 233 233 235 237 236 234 236 238 238 238 240 240 242 245 245 247 248
259 259 260 255 257 254 245 240 241 240 236 231 225 222 225 229 230 228 225 225 227 227 229 231 233 235 236 235 234 234 235 234 235 236 237 239 241 240 242 245 246 247 245
259 261 258 257 256 252 248 246 243 241 240 235 227 225 228 231 230 231 229 228 230 230 230 232 235 238 239 240 238 237 236 236 237 237 240 242 243 242 244 249 248 251 249
264 263 265 261 260 255 252 249 248 245 240 234 230 230 231 233 232 232 232 232 233 235 233 235 238 239 242 242 240 238 239 239 240 240 241 242 242 244 246 249 250 253 254
266 271 275 267 262 260 257 254 251 245 238 235 232 231 231 234 235 235 237 233 231 233 234 236 238 240 242 242 241 241 241 239 238 239 241 242 244 246 246 248 251 255 259
272 280 284 274 266 264 260 253 248 243 238 238 234 233 234 234 236 239 238 234 232 234 236 238 242 242 242 242 243 242 240 238 238 240 243 245 246 248 248 250 252 256 260
274 278 279 277 272 268 265 253 248 245 244 243 238 236 237 238 238 236 237 236 238 239 239 239 244 243 242 244 244 243 242 241 239 240 244 245 246 247 249 250 252 257 259
269 273 275 278 274 268 262 253 250 247 247 246 244 242 242 245 246 246 243 243 244 243 242 241 244 246 244 244 243 243 244 242 241 242 243 244 244 249 252 253 255 258 260
266 270 274 275 275 269 259 252 248 244 248 251 253 253 253 253 254 254 251 244 244 243 243 244 245 247 245 243 242 242 242 243 244 244 245 248 252 255 258 259 260 263 262
274 272 272 272 272 269 262 251 248 249 251 252 254 256 255 256 255 256 253 247 245 242 243 245 247 247 245 245 248 246 245 245 246 246 249 252 255 257 259 261 264 264 263
278 276 274 274 272 269 263 256 256 255 255 255 255 255 256 257 256 259 259 257 251 246 245 245 245 248 250 251 253 252 249 247 248 249 251 252 256 258 260 262 263 264 264
277 275 276 276 275 275 263 261 264 261 257 254 252 253 257 258 257 257 260 260 258 251 248 245 246 248 251 252 253 254 253 250 250 252 252 253 256 258 260 263 264 266 266
279 276 275 277 279 279 267 262 264 260 255 253 256 258 261 261 257 256 257 257 258 258 256 253 253 252 251 253 254 254 255 255 254 254 254 255 257 258 261 263 265 266 266
278 278 276 278 280 278 270 265 265 259 255 254 257 260 264 266 260 259 261 260 259 259 258 257 257 256 255 255 256 257 257 258 256 256 256 256 258 259 261 263 265 266 266
277 278 275 277 281 276 268 266 269 267 261 260 260 259 261 265 264 263 264 266 264 263 261 260 257 256 257 258 259 261 261 261 260 259 259 259 260 261 261 263 264 265 267
278 278 276 278 280 277 269 266 269 268 265 262 264 266 264 264 263 265 268 270 266 264 262 261 258 258 259 260 260 261 262 263 262 262 263 262 262 262 263 264 264 264 265
276 275 276 276 276 274 272 271 269 266 266 266 267 268 269 268 267 267 268 271 269 265 264 261 260 260 260 262 263 264 266 267 265 265 266 265 264 263 262 263 263 263 263
279 277 277 278 279 277 273 272 271 271 271 272 272 271 272 272 270 270 271 272 269 267 264 262 262 262 263 264 266 268 269 269 268 268 267 267 266 264 264 262 262 261 261
280 280 278 277 279 280 279 277 276 276 275 275 275 276 276 276 275 275 275 274 271 267 266 265 264 264 264 266 267 269 271 271 271 271 269 267 266 265 264 261 261 261 261
Height
5871 5871 5871 5872 5872 5873 5873 5874 5874 5875 5875 5875 5876 5876 5876 5877 5877 5877 5878 5878 5879 5879 5880 5881 5881 5881 5882 5882 5883 5883 5884 5884 5885 5885 5886 5886 5886 5886 5887 5887 5887 5887 5887
5870 5870 5870 5870 5871 5871 5872 5872 5873 5873 5873 5874 5874 5875 5875 5875 5876 5877 5877 5877 5878 5879 5879 5880 5881 5881 5881 5882 5882 5883 5883 5884 5884 5885 5885 5886 5886 5886 5886 5886 5887 5887 5887
5868 5868 5868 5869 5869 5870 5870 5871 5871 5871 5872 5872 5873 5873 5873 5874 5875 5875 5876 5876 5877 5878 5878 5879 5880 5880 5881 5882 5882 5882 5883 5883 5884 5884 5885 5885 5885 5886 5886 5886 5886 5887 5887
5867 5867 5867 5867 5867 5868 5868 5869 5869 5869 5870 5870 5870 5871 5872 5873 5874 5874 5875 5875 5876 5877 5877 5878 5879 5880 5880 5881 5881 5882 5882 5883 5883 5883 5884 5884 5884 5885 5885 5886 5886 5886 5886
5865 5865 5865 5866 5866 5866 5867 5867 5867 5867 5867 5867 5868 5869 5870 5871 5872 5873 5873 5874 5875 5875 5876 5877 5878 5878 5879 5880 5880 5881 5881 5882 5882 5882 5883 5883 5883 5884 5884 5884 5885 5885 5885
5864 5864 5864 5864 5864 5865 5865 5865 5865 5865 5865 5865 5865 5867 5868 5869 5870 5871 5872 5872 5873 5874 5875 5875 5876 5877 5878 5878 5879 5879 5880 5880 5881 5881 5881 5882 5882 5883 5883 5883 5883 5883 5884
5863 5863 5863 5863 5863 5863 5863 5863 5863 5863 5863 5863 5864 5865 5866 5867 5868 5869 5870 5871 5871 5872 5873 5874 5875 5875 5876 5876 5877 5878 5878 5879 5879 5879 5880 5880 5881 5881 5881 5881 5882 5882 5882
5862 5861 5861 5861 5862 5861 5862 5862 5862 5862 5862 5861 5862 5864 5865 5866 5867 5867 5868 5869 5870 5870 5871 5872 5873 5873 5874 5874 5875 5876 5877 5877 5877 5878 5878 5879 5879 5879 5880 5880 5880 5880 5880
5861 5860 5860 5860 5860 5860 5860 5860 5860 5861 5861 5861 5861 5862 5863 5864 5865 5865 5866 5867 5868 5869 5869 5870 5871 5871 5872 5872 5873 5874 5874 5875 5876 5876 5876 5877 5877 5878 5878 5878 5878 5878 5878
5860 5860 5859 5859 5859 5859 5859 5859 5859 5859 5859 5860 5860 5861 5862 5862 5863 5864 5864 5865 5866 5867 5867 5868 5869 5869 5870 5870 5871 5872 5872 5873 5874 5874 5874 5875 5875 5875 5876 5876 5876 5876 5876
5859 5859 5858 5858 5858 5858 5858 5857 5858 5858 5858 5858 5859 5859 5860 5861 5861 5862 5863 5863 5864 5865 5866 5866 5867 5867 5868 5868 5869 5870 5870 5871 5872 5872 5872 5873 5873 5873 5874 5874 5874 5874 5874
5858 5858 5858 5857 5857 5856 5856 5856 5856 5856 5857 5857 5857 5858 5858 5859 5859 5860 5861 5861 5862 5863 5864 5864 5865 5865 5866 5866 5867 5868 5868 5869 5869 5870 5870 5871 5871 5871 5871 5872 5872 5872 5872
5857 5857 5857 5856 5856 5855 5855 5855 5855 5855 5855 5856 5856 5856 5857 5857 5858 5858 5859 5859 5860 5861 5862 5862 5863 5863 5864 5864 5865 5865 5866 5867 5867 5868 5868 5868 5869 5869 5869 5869 5869 5869 5869
5856 5856 5856 5855 5855 5854 5854 5854 5854 5854 5854 5854 5855 5855 5856 5856 5856 5856 5857 5858 5858 5859 5859 5860 5860 5861 5861 5862 5863 5863 5864 5864 5865 5865 5866 5866 5866 5867 5867 5867 5867 5867 5867
5856 5855 5855 5854 5854 5853 5853 5853 5853 5853 5853 5853 5853 5854 5854 5854 5855 5855 5855 5856 5856 5856 5857 5858 5858 5858 5859 5860 5860 5861 5862 5862 5863 5863 5863 5864 5864 5864 5864 5864 5864 5864 5864
5855 5854 5854 5853 5853 5852 5852 5852 5852 5852 5852 5852 5852 5852 5853 5853 5853 5853 5853 5853 5854 5854 5854 5855 5856 5856 5857 5857 5858 5858 5859 5859 5860 5860 5861 5861 5861 5861 5861 5861 5861 5861 5861
5854 5853 5853 5852 5852 5851 5851 5851 5850 5850 5850 5851 5851 5851 5851 5851 5851 5851 5852 5851 5852 5852 5852 5853 5853 5854 5854 5855 5855 5856 5856 5857 5857 5858 5858 5858 5858 5858 5858 5858 5858 5858 5858
5852 5852 5852 5851 5851 5850 5850 5849 5849 5849 5849 5849 5849 5849 5849 5849 5849 5850 5850 5850 5849 5850 5850 5851 5851 5852 5852 5852 5852 5853 5853 5854 5854 5855 5855 5855 5855 5855 5855 5855 5855 5855 5855
5851 5851 5850 5850 5849 5849 5848 5848 5848 5847 5847 5847 5847 5847 5847 5847 5848 5848 5848 5847 5847 5848 5848 5848 5849 5849 5849 5850 5850 5850 5850 5851 5851 5851 5852 5852 5852 5852 5852 5852 5852 5852 5852
5850 5849 5849 5849 5848 5848 5847 5847 5846 5846 5846 5846 5846 5846 5846 5846 5845 5845 5846 5845 5845 5846 5846 5846 5846 5847 5847 5847 5847 5847 5847 5848 5848 5848 5848 5848 5848 5848 5848 5848 5848 5848 5848
5849 5848 5848 5847 5847 5846 5846 5845 5845 5845 5845 5844 5844 5844 5844 5844 5844 5843 5843 5843 5843 5843 5843 5843 5844 5844 5844 5844 5844 5844 5844 5845 5845 5845 5845 5845 5845 5845 5845 5845 5845 5844 5844
5847 5846 5846 5846 5845 5845 5844 5844 5843 5843 5843 5843 5842 5842 5842 5842 5842 5841 5841 5841 5841 5841 5841 5841 5841 5841 5841 5841 5842 5842 5842 5842 5842 5842 5841 5841 5841 5841 5841 5841 5841 5841 5840
5845 5845 5844 5844 5843 5843 5842 5842 5842 5841 5841 5841 5840 5840 5840 5839 5839 5839 5839 5839 5838 5838 5838 5838 5838 5838 5838 5838 5838 5839 5839 5838 5838 5838 5837 5837 5837 5837 5837 5837 5837 5836 5836
5843 5843 5842 5842 5842 5841 5841 5840 5840 5839 5839 5839 5838 5838 5837 5837 5837 5836 5836 5836 5835 5835 5835 5835 5835 5835 5835 5835 5835 5835 5835 5834 5835 5834 5834 5833 5832 5832 5832 5832 5832 5832 5832
5841 5840 5840 5840 5839 5839 5838 5838 5838 5837 5837 5836 5836 5835 5835 5834 5834 5833 5833 5832 5832 5832 5832 5832 5832 5832 5831 5831 5831 5831 5830 5830 5830 5830 5829 5829 5828 5828 5828 5828 5828 5828 5828
5838 5838 5838 5837 5837 5836 5836 5836 5835 5835 5834 5834 5833 5832 5832 5831 5831 5830 5829 5829 5829 5828 5828 5828 5828 5828 5827 5827 5827 5827 5826 5826 5825 5825 5824 5824 5823 5823 5823 5823 5823 5823 5823